User: anonymous   Login
Location: Allison's Woods
(35.8809°N, 80.8140°W)
Time: 20:17:31
(UTC-04:00)
Language:

Iridium 39 - Orbit

View from above orbital plane
View from above orbital plane
View from above satellite
View from above satellite

Ground track
Ground track

The orbit data is extracted from the following two-line orbital elements,

1 25042U 97069D   15116.19965249  .00000469  00000-0  16036-3 0  9991
2 25042 086.3992 349.4694 0002038 081.1887 278.9539 14.34232615914083
Epoch (UTC): 26 April 2015 04:47:29
Eccentricity: 0.0002038
inclination: 86.3992°
perigee height: 776 km
apogee height: 779 km
right ascension of ascending node: 349.4694°
argument of perigee: 81.1887°
revolutions per day: 14.34232615
mean anomaly at epoch: 278.9539°
orbit number at epoch: 91408

The dashed part of the orbit path shows where the satellite is in the earth's shadow,  

DLR